STARLINK-34416

Last updated on Sat Jul 19 2025 00:02:07 GMT+0000 (Coordinated Universal Time)

1 64619U 25137AB 25199.58335648 -.01538029 00000+0 -16393-1 0 9994 2 64619 53.1599 355.2200 0001035 97.3837 313.7072 15.66253784 4759
UTC large
Height (km)
Speed (km/s)
/
Latitude / Longitude
Inclination (degrees)
Orbital Period (minutes)
Azimuth
Elevation
Range (km)
Doppler Factor

Next 0 passes for location: London (51.5072 / 0.1276)

Sorry there are no passes over London.